(82) Alkmene
ephemeris date magn radius delta ra dec elong phase
Today26 Aug 202613.22.289 AU3.195 AU11h40m+02°56'21.9°9.5°
Opposition2 Jun 202712.12.906 AU1.892 AU16h38m-25°17'176.8°1.1°
(82) Alkmene - 2026-08-26
astro.vanbuitenen.nl


 
-1 year
-1 month
-1 day
Now
+1 day
+1 month
+1 year

The interactive orbit chart above shows the body's path through the solar system and its position at the given date. Green and blue lines are shown perpendicular to the ecliptic plane: Green if the path is above the ecliptic plane, blue if it is below. (Left-click and drag to rotate the view; Right-click and drag to move the view; Use scroll wheel to zoom in our out.)

The orbital elements of Alkmene are:

            e (Eccentricity)                : 0.2208602
            a (Semimajor axis)              : 2.7633127
            i (Inclination)                 : 2.82522
            Ω (Longitude of ascending node) : 25.38315
            ω (Argument of perihelion)      : 110.67315
            M (Mean anomaly)                : 14.24591
            Epoch                           : 2026 Jun 09

            L (Longitude of perihelion)     : -43.92067
            B (Latitude of perihelion)      : 2.64317
            P (Orbital period in years)     : 4.59            
        

The light curve chart below shows the estimated development of the minor planet's magnitude.


The all-sky chart below shows the path of the minor planet over the same period as the light curve. The current position is marked yellow.





The following chart shows the path of the minor planet in the next few days. The field of view is optimized for (~10x50) binoculars and finderscopes.




Ephemerides:
Date       Time       RA (2000)    DEC (2000)    delta   radius  elong  phase   PA    magn
2026-08-26 00:00 UT   11 40 21.3   +02 56 10     3.195    2.289   21.9    9.5   111   13.2 
2026-08-26 20:34 UT   11 41 55.9   +02 45 22     3.200    2.290   21.5    9.3   111   13.2 
2026-08-27 00:00 UT   11 42 11.7   +02 43 34     3.201    2.290   21.5    9.3   111   13.2 
2026-08-28 00:00 UT   11 44 02.0   +02 30 58     3.206    2.292   21.0    9.1   111   13.2 
2026-08-29 00:00 UT   11 45 52.3   +02 18 21     3.212    2.294   20.5    8.9   111   13.2 
2026-08-30 00:00 UT   11 47 42.5   +02 05 44     3.218    2.296   20.1    8.7   111   13.2 
2026-08-31 00:00 UT   11 49 32.7   +01 53 08     3.223    2.297   19.6    8.5   111   13.2 
2026-09-01 00:00 UT   11 51 22.8   +01 40 31     3.229    2.299   19.1    8.3   111   13.2 
2026-09-02 00:00 UT   11 53 12.9   +01 27 54     3.234    2.301   18.7    8.1   111   13.2 
2026-09-03 00:00 UT   11 55 02.9   +01 15 18     3.239    2.303   18.2    7.9   111   13.2 
2026-09-04 00:00 UT   11 56 52.9   +01 02 41     3.244    2.305   17.8    7.7   111   13.2 
2026-09-05 00:00 UT   11 58 42.9   +00 50 05     3.250    2.306   17.3    7.5   111   13.2 
2026-09-06 00:00 UT   12 00 32.8   +00 37 30     3.255    2.308   16.8    7.3   111   13.2 
2026-09-07 00:00 UT   12 02 22.7   +00 24 54     3.260    2.310   16.4    7.1   111   13.2 
2026-09-08 00:00 UT   12 04 12.6   +00 12 19     3.264    2.312   15.9    6.9   111   13.2 
2026-09-09 00:00 UT   12 06 02.4   +00 00 16     3.269    2.314   15.4    6.6   111   13.1 
2026-09-10 00:00 UT   12 07 52.2   +00 12 50     3.274    2.315   15.0    6.4   111   13.1 
2026-09-11 00:00 UT   12 09 41.9   +00 25 23     3.278    2.317   14.5    6.2   111   13.1 


    Terminology:
            
    delta:  distance between minor planet and earth in AU
    radius: distance between minor planet and sun in AU
    magn:   magnitude (brightness) estimate    
    ra:     right ascension in hours (24h = 360deg)
    dec:    declination in degrees
    elong:  elongation in degrees (angle sun-earth-minor planet)    
    phase:  phase angle in degrees (angle sun-minor planet-earth)        
    AU:     Astronomical Unit (mean distance between earth and sun: 149597870.7 km
    

Orbital elements provided by the MPC (Minor Planet Center).
Calculations by a modified version of AAPlus, a C# implementation of the AA+ project by PJ Naughter from the algorithms presented in the book "Astronomical Algorithms" by Jean Meeus.
NGC2000 dso catalog and star labels from VizieR as provided by the Strasbourg astronomical Data Center.
Tycho2 catalog from the ESO archive.